Location: Ravensburg
(47.7866°N, 9.6124°E)
Time: 00:08:21
(UTC+01:00)

ITUPSAT 1 - Visible Passes

Search period start: 14 March 2026 00:00
Search period end: 24 March 2026 00:00
Orbit: 687 x 698 km, 98.4° (Epoch: 13 March)

Date Brightness Start Highest point End Pass type
(mag) Time Alt. Az. Time Alt. Az. Time Alt. Az.
20 Mar ? 00:34:40 10° N 00:34:44 10° N 00:34:44 10° N visible
21 Mar ? 01:14:52 10° NNW 01:14:53 10° NNW 01:14:53 10° NNW visible
22 Mar ? 00:16:09 10° N 00:16:21 11° N 00:16:21 11° N visible
23 Mar ? 00:56:06 10° N 00:56:29 12° N 00:56:29 12° N visible
